• In Hungary
  • List of Countries
  • For 7 days
  • Water Temperature
  • Satellite Maps
  • Weather Map
  • News
  • Weather Widgets
  • user-avatar
    Login

    Hourly Weather Bergamo

    Today, 19 January, Friday

    Time Temperature Precipitation Wind Pressure Humidity
    00:00 +4°C° 0 mm 2 mps 728 mmHg 71%
    01:00 +3°C° 0 mm 2 mps 728 mmHg 72%
    02:00 +3°C° 0 mm 2 mps 728 mmHg 73%
    03:00 +3°C° 0 mm 2 mps 727 mmHg 73%
    04:00 +4°C° 0 mm 2 mps 727 mmHg 74%
    05:00 +4°C° 0 mm 1 mps 727 mmHg 75%
    06:00 +4°C° 0 mm 1 mps 727 mmHg 76%
    07:00 +4°C° 0 mm 1 mps 726 mmHg 77%
    08:00 +5°C° 0 mm 1 mps 727 mmHg 75%
    09:00 +6°C° 0 mm 1 mps 727 mmHg 74%
    10:00 +7°C° 0 mm 1 mps 727 mmHg 73%
    11:00 +7°C° 0 mm 2 mps 727 mmHg 71%
    12:00 +8°C° 0 mm 2 mps 727 mmHg 68%
    13:00 +9°C° 0 mm 2 mps 727 mmHg 66%
    14:00 +9°C° 0 mm 2 mps 728 mmHg 66%
    15:00 +8°C° 0 mm 2 mps 728 mmHg 67%
    16:00 +8°C° 0 mm 2 mps 728 mmHg 67%
    17:00 +7°C° 0 mm 2 mps 729 mmHg 66%
    18:00 +5°C° 0 mm 2 mps 730 mmHg 66%
    19:00 +3°C° 0 mm 3 mps 730 mmHg 65%
    20:00 +3°C° 0 mm 2 mps 731 mmHg 64%
    21:00 +3°C° 0 mm 2 mps 731 mmHg 62%
    22:00 +2°C° 0 mm 2 mps 731 mmHg 61%
    23:00 +2°C° 0 mm 2 mps 731 mmHg 60%

    Tomorrow, 20 January, Saturday

    Time Temperature Precipitation Wind Pressure Humidity
    00:00 +2°C° 0 mm 2 mps 731 mmHg 60%
    01:00 +3°C° 0 mm 1 mps 731 mmHg 60%
    02:00 +3°C° 0 mm 1 mps 732 mmHg 61%
    03:00 +3°C° 0 mm 1 mps 732 mmHg 62%
    04:00 +3°C° 0 mm 1 mps 732 mmHg 63%
    05:00 +3°C° 0 mm 1 mps 732 mmHg 64%
    06:00 +2°C° 0 mm 1 mps 732 mmHg 66%
    07:00 +2°C° 0 mm 1 mps 732 mmHg 67%
    08:00 +3°C° 0 mm 1 mps 732 mmHg 65%
    09:00 +4°C° 0 mm 1 mps 732 mmHg 63%
    10:00 +5°C° 0 mm 1 mps 732 mmHg 62%
    11:00 +5°C° 0 mm 1 mps 731 mmHg 61%
    12:00 +6°C° 0 mm 1 mps 730 mmHg 61%
    13:00 +7°C° 0 mm 1 mps 729 mmHg 61%
    14:00 +6°C° 0 mm 1 mps 728 mmHg 65%
    15:00 +6°C° 0 mm 1 mps 728 mmHg 70%
    16:00 +6°C° 0 mm 1 mps 727 mmHg 74%
    17:00 +5°C° 0.4 mm 1 mps 726 mmHg 78%
    18:00 +4°C° 0.4 mm 1 mps 726 mmHg 83%
    19:00 +4°C° 0.4 mm 1 mps 726 mmHg 87%
    20:00 +4°C° 0.4 mm 1 mps 726 mmHg 87%
    21:00 +3°C° 0.4 mm 1 mps 726 mmHg 87%
    22:00 +3°C° 0.4 mm 1 mps 726 mmHg 87%
    23:00 +3°C° 0.2 mm 1 mps 726 mmHg 86%

    Day after tomorrow, 21 January, Sunday

    Time Temperature Precipitation Wind Pressure Humidity
    00:00 +4°C° 0.2 mm 1 mps 727 mmHg 84%
    01:00 +3°C° 0.2 mm 2 mps 727 mmHg 83%
    02:00 +3°C° 0.1 mm 2 mps 727 mmHg 82%
    03:00 +3°C° 0.1 mm 2 mps 727 mmHg 81%
    04:00 +3°C° 0.1 mm 2 mps 727 mmHg 80%
    05:00 +3°C° 0.1 mm 2 mps 728 mmHg 79%
    06:00 +3°C° 0.1 mm 2 mps 728 mmHg 78%
    07:00 +3°C° 0.1 mm 2 mps 729 mmHg 78%
    08:00 +3°C° 0 mm 2 mps 729 mmHg 74%
    09:00 +4°C° 0 mm 2 mps 730 mmHg 71%
    10:00 +5°C° 0 mm 2 mps 730 mmHg 68%
    11:00 +6°C° 0 mm 2 mps 731 mmHg 65%
    12:00 +7°C° 0 mm 2 mps 731 mmHg 63%
    13:00 +8°C° 0 mm 2 mps 731 mmHg 60%
    14:00 +8°C° 0 mm 2 mps 731 mmHg 63%
    15:00 +8°C° 0 mm 2 mps 731 mmHg 66%
    16:00 +8°C° 0 mm 1 mps 731 mmHg 69%
    17:00 +8°C° 0.1 mm 1 mps 731 mmHg 72%
    18:00 +7°C° 0.1 mm 1 mps 732 mmHg 75%
    19:00 +6°C° 0.1 mm 1 mps 732 mmHg 79%
    20:00 +6°C° 0.3 mm 1 mps 732 mmHg 79%
    21:00 +6°C° 0.3 mm 1 mps 732 mmHg 80%
    22:00 +5°C° 0.3 mm 1 mps 733 mmHg 80%
    23:00 +5°C° 0.2 mm 1 mps 733 mmHg 80%

    22 January, Monday

    Time Temperature Precipitation Wind Pressure Humidity
    00:00 +5°C° 0.2 mm 1 mps 733 mmHg 80%
    01:00 +5°C° 0.2 mm 1 mps 733 mmHg 79%
    02:00 +5°C° 0 mm 1 mps 733 mmHg 79%
    03:00 +4°C° 0 mm 1 mps 733 mmHg 79%
    04:00 +4°C° 0 mm 1 mps 733 mmHg 79%
    05:00 +4°C° 0 mm 1 mps 733 mmHg 79%
    06:00 +4°C° 0 mm 1 mps 733 mmHg 79%
    07:00 +4°C° 0 mm 1 mps 733 mmHg 79%
    08:00 +5°C° 0 mm 1 mps 733 mmHg 77%
    09:00 +5°C° 0 mm 1 mps 733 mmHg 75%
    10:00 +6°C° 0 mm 1 mps 734 mmHg 73%
    11:00 +7°C° 0 mm 1 mps 734 mmHg 72%
    12:00 +8°C° 0 mm 1 mps 734 mmHg 70%
    13:00 +9°C° 0 mm 1 mps 733 mmHg 69%
    14:00 +9°C° 0 mm 1 mps 733 mmHg 70%
    15:00 +9°C° 0 mm 1 mps 733 mmHg 72%
    16:00 +8°C° 0 mm 1 mps 733 mmHg 73%
    17:00 +8°C° 0 mm 1 mps 734 mmHg 73%
    18:00 +7°C° 0 mm 1 mps 734 mmHg 73%
    19:00 +7°C° 0 mm 1 mps 734 mmHg 73%
    20:00 +7°C° 0 mm 1 mps 734 mmHg 74%
    21:00 +7°C° 0 mm 1 mps 734 mmHg 74%
    22:00 +7°C° 0 mm 1 mps 734 mmHg 74%
    23:00 +6°C° 0 mm 1 mps 734 mmHg 74%

    23 January, Tuesday

    Time Temperature Precipitation Wind Pressure Humidity
    00:00 +6°C° 0 mm 1 mps 735 mmHg 75%
    01:00 +6°C° 0 mm 1 mps 735 mmHg 76%
    02:00 +6°C° 0 mm 1 mps 735 mmHg 77%
    03:00 +5°C° 0 mm 2 mps 735 mmHg 77%
    04:00 +5°C° 0 mm 2 mps 735 mmHg 78%
    05:00 +4°C° 0 mm 2 mps 736 mmHg 78%
    06:00 +4°C° 0 mm 2 mps 736 mmHg 79%
    07:00 +4°C° 0 mm 2 mps 737 mmHg 79%
    08:00 +5°C° 0 mm 2 mps 737 mmHg 77%
    09:00 +6°C° 0 mm 2 mps 738 mmHg 76%
    10:00 +7°C° 0 mm 2 mps 738 mmHg 74%
    11:00 +8°C° 0 mm 2 mps 738 mmHg 73%
    12:00 +10°C° 0 mm 2 mps 738 mmHg 71%
    13:00 +12°C° 0 mm 2 mps 738 mmHg 70%
    14:00 +11°C° 0 mm 1 mps 738 mmHg 72%
    15:00 +11°C° 0 mm 1 mps 739 mmHg 73%
    16:00 +11°C° 0 mm 1 mps 739 mmHg 75%
    17:00 +9°C° 0 mm 1 mps 739 mmHg 76%
    18:00 +8°C° 0 mm 1 mps 740 mmHg 77%
    19:00 +7°C° 0 mm 1 mps 740 mmHg 78%
    20:00 +7°C° 0 mm 1 mps 741 mmHg 77%
    21:00 +7°C° 0 mm 1 mps 741 mmHg 76%
    22:00 +6°C° 0 mm 1 mps 741 mmHg 75%
    23:00 +6°C° 0 mm 1 mps 741 mmHg 74%

    24 January, Wednesday

    Time Temperature Precipitation Wind Pressure Humidity
    00:00 +6°C° 0 mm 1 mps 742 mmHg 73%
    01:00 +6°C° 0 mm 1 mps 742 mmHg 72%
    02:00 +6°C° 0 mm 1 mps 741 mmHg 72%
    03:00 +6°C° 0 mm 1 mps 741 mmHg 71%
    04:00 +6°C° 0 mm 1 mps 741 mmHg 71%
    05:00 +5°C° 0 mm 1 mps 741 mmHg 70%
    06:00 +5°C° 0 mm 1 mps 741 mmHg 70%
    07:00 +5°C° 0 mm 1 mps 741 mmHg 70%
    08:00 +6°C° 0 mm 1 mps 741 mmHg 68%
    09:00 +7°C° 0 mm 1 mps 741 mmHg 67%
    10:00 +8°C° 0 mm 1 mps 742 mmHg 66%
    11:00 +9°C° 0 mm 1 mps 741 mmHg 65%
    12:00 +10°C° 0 mm 1 mps 741 mmHg 64%
    13:00 +11°C° 0 mm 1 mps 741 mmHg 63%
    14:00 +11°C° 0 mm 1 mps 741 mmHg 66%
    15:00 +11°C° 0 mm 1 mps 741 mmHg 68%
    16:00 +9°C° 0 mm 0 mps 740 mmHg 70%
    17:00 +8°C° 0 mm 0 mps 741 mmHg 72%
    18:00 +8°C° 0 mm 1 mps 741 mmHg 74%
    19:00 +7°C° 0 mm 1 mps 741 mmHg 76%
    20:00 +7°C° 0 mm 1 mps 741 mmHg 76%
    21:00 +7°C° 0 mm 1 mps 742 mmHg 76%
    22:00 +6°C° 0 mm 1 mps 742 mmHg 76%
    23:00 +6°C° 0 mm 1 mps 742 mmHg 76%
    Show more